Location: Arbon
(43.0005°N, 0.7472°E)
Time: 04:14:43
(UTC+00:00)

Vanguard 2 Rocket - Pass Details

Date: 27 June 2021
Orbit: 554 x 3325 km, 32.9° (Epoch: 26 July)

Event Time Altitude Azimuth Distance (km) Brightness Sun altitude
Rises 00:00:01 0° 279° (W) 6,993 11.5 -23.7°
Reaches altitude 10° 00:06:57 10° 265° (W) 5,571 10.8 -23.7°
Maximum altitude 00:16:32 19° 228° (SW) 4,052 9.8 -23.6°
Enters shadow 00:17:10 19° 225° (SW) 3,998 9.7 -23.6°
